• MPC Preparation (Info)

  • MPEC 2022-E198 : 2022 ES5

    The following Minor Planet Electronic Circular may be linked-to from your own Web pages, but must not otherwise be redistributed electronically.

    A form allowing access to any MPEC is at the bottom of this page.


    Read MPEC 2022-E197 Read MPEC 2022-E199


    M.P.E.C. 2022-E198                               Issued 2022 March 13, 08:38 UT
    
         The Minor Planet Electronic Circulars contain information on unusual
             minor planets and routine data on comets.  They are published
        on behalf of Division F of the International Astronomical Union by the
              Minor Planet Center, Smithsonian Astrophysical Observatory,
                              Cambridge, MA 02138, U.S.A.
    
                 Prepared using the Tamkin Foundation Computer Network
    
                                  MPC@CFA.HARVARD.EDU
                URL https://www.minorplanetcenter.net/    ISSN 1523-6714
    
                                    2022 ES5                                 
    
    
    Observations:
         K22E05S  C2022 01 26.39966608 55 49.502-03 45 48.67         22.73GVEE198F52
         K22E05S  C2022 01 26.41250008 55 50.100-03 46 04.98         22.72GVEE198F52
         K22E05S  C2022 01 26.42520608 55 50.664-03 46 20.59         22.35GVEE198F52
         K22E05S  C2022 01 26.43797208 55 51.221-03 46 36.48         22.85GVEE198F52
         K22E05S* C2022 03 10.31142412 20 38.38 -24 49 57.9          19.82GVEE198G96
         K22E05S  C2022 03 10.31789412 20 43.28 -24 50 05.2          19.65GVEE198G96
         K22E05S  C2022 03 10.32437312 20 48.16 -24 50 11.8          19.39GVEE198G96
         K22E05S  C2022 03 10.33084812 20 53.03 -24 50 18.6          19.66GVEE198G96
         K22E05S  C2022 03 10.37606 12 21 26.99 -24 51 04.2          19.8 GVEE198703
         K22E05S  C2022 03 10.38136 12 21 31.04 -24 51 09.9          19.9 GVEE198703
         K22E05S mC2022 03 10.40123612 21 45.93 -24 51 27.6          19.75GVEE198I52
         K22E05S mC2022 03 10.40165612 21 46.25 -24 51 27.9          19.75GVEE198I52
         K22E05S mC2022 03 10.40207612 21 46.57 -24 51 28.2          20.01GVEE198I52
         K22E05S mC2022 03 10.40249512 21 46.87 -24 51 28.8          20.42GVEE198I52
         K22E05S |C2022 03 11.16797 12 32 08.86 -25 00 37.6          19.6 VuEE198807
         K22E05S |C2022 03 11.17236 12 32 12.23 -25 00 41.5          20.1 VuEE198807
         K22E05S |C2022 03 11.17664 12 32 15.55 -25 00 45.3          20.0 VuEE198807
         K22E05S  C2022 03 11.45311312 35 59.428-25 05 33.37         19.95wUEE198F52
         K22E05S  C2022 03 11.48557112 36 24.345-25 05 55.47         20.10wUEE198F52
         K22E05S bC2022 03 12.97146212 56 55.35 -25 15 51.9          20.3 GVEE198L01
         K22E05S bC2022 03 12.97492812 56 58.14 -25 15 52.4          20.0 GVEE198L01
         K22E05S IC2022 03 12.98191512 57 03.76 -25 15 54.0          20.2 GVEE198L01
         K22E05S bC2022 03 12.98537812 57 06.45 -25 15 54.9          19.9 GVEE198L01
         K22E05S bC2022 03 13.00459512 57 21.81 -25 15 58.1          19.8 GVEE198L01
    
    Observer details:
    703 Catalina Sky Survey.  Observer J. B. Fazekas.  Measurers E. J.
        Christensen, B. Gray, D. Rankin, F. C. Shelly.  0.68-m Schmidt + 10K CCD.
    807 Cerro Tololo Observatory, La Serena.  Observers T. Linder, R. Holmes, L.
        Horn.  0.61-m f/6.5 astrograph + CCD.
    F52 Pan-STARRS 2, Haleakala.  Observers J. Bulger, K. Chambers, T. Dukes, T.
        Lowe, A. Schultz, I. Smith.  Measurers S. Chastel, M. Huber, Y.
        Ramanjooloo, R. Wainscoat, R. Weryk, K. Chambers, T. de Boer, J. Fairlamb,
        H. Gao, C.-C. Lin, E. Magnier.  1.8-m Ritchey-Chretien + CCD.
    G96 Mt. Lemmon Survey.  Observer G. J. Leonard.  Measurers E. J. Christensen,
        G. A. Farneth, J. B. Fazekas, D. C. Fuls, A. R. Gibbs, A. D. Grauer, H.
        Groeller, R. A. Kowalski, S. M. Larson, G. J. Leonard, D. Rankin, R. L.
        Seaman, A. Serrano, F. C. Shelly, K. W. Wierzchos.  1.5-m reflector + 10K
        CCD.
    I52 Steward Observatory, Mt. Lemmon Station.  Observer H. Groeller.  Measurers
        E. J. Christensen, G. A. Farneth, J. B. Fazekas, D. C. Fuls, A. R. Gibbs,
        A. D. Grauer, H. Groeller, R. A. Kowalski, S. M. Larson, G. J. Leonard, D.
        Rankin, R. L. Seaman, A. Serrano, F. C. Shelly, K. W. Wierzchos.
    L01 Visnjan Observatory, Tican.  Observer K. Korlevic.  1.0-m f/2.9 reflector
        + CCD.
    
    Orbital elements:
    2022 ES5                                                 Earth MOID = 0.0568 AU
    Epoch 2022 Jan. 21.0 TT = JDT 2459600.5                 Veres                   
    M 343.26334              (2000.0)            P               Q                  
    n   0.29215726     Peri.  351.96217     -0.99973566     +0.01894255             
    a   2.2493564      Node   189.15356     -0.01373478     -0.94655677             
    e   0.5319739      Incl.    4.69848     -0.01843838     -0.32198053             
    P   3.37           H   24.31          G   0.15           U   6                  
    Residuals in seconds of arc
    220126 F52  0.1-  0.2+    220310 703  0.2+  0.2-    220311 807  0.1-  0.1-
    220126 F52  0.2+  0.2-    220310 703  1.0+  0.9-    220311 F52  0.2+  0.0
    220126 F52  0.1+  0.0     220310 I52  0.3-  0.0     220311 F52  0.1+  0.0
    220126 F52  0.1-  0.1-    220310 I52  0.2-  0.1+    220312 L01  0.4-  0.4+
    220310 G96  0.2-  0.2+    220310 I52  0.1-  0.1+    220312 L01  0.1-  0.6+
    220310 G96  0.2+  0.2-    220310 I52  0.3-  0.0     220312 L01  0.5+  0.4+
    220310 G96  0.3+  0.2+    220311 807  0.1-  0.1+    220312 L01  0.5-  0.1+
    220310 G96  0.4+  0.1+    220311 807  0.3-  0.0     220313 L01  0.1+  0.1+
    
    Ephemeris:
    2022 ES5                 a,e,i = 2.25, 0.53, 5                   q = 1.0528
    Date    TT    R. A. (2000) Decl.     Delta      r    Elong.  Phase     V
    2022 02 11    09 18 44.9 -09 48 51   0.1661  1.1402   155.6    21.0    21.7
    ...
    2022 02 26    10 18 40.2 -17 56 37   0.1047  1.0842   152.8    24.6    20.7
    ...
    2022 03 06    11 27 56.2 -22 56 58   0.08309 1.0652   150.6    27.2    20.3
    ...
    2022 03 12    12 43 26.1 -25 09 15   0.07509 1.0565   145.9    31.8    20.2
    2022 03 13    12 57 16.4 -25 14 07   0.07459 1.0555   144.7    32.9    20.2
    2022 03 14    13 11 12.2 -25 13 09   0.07433 1.0547   143.5    34.1    20.2
    ...
    2022 03 20    14 30 25.4 -23 15 49   0.07772 1.0527   135.8    41.3    20.5
    ...
    2022 03 28    15 46 43.5 -18 12 09   0.09265 1.0580   128.4    47.6    21.1
    ...
    2022 04 12    16 50 57.7 -10 35 43   0.1359  1.0914   128.1    46.3    21.9
    
    M. P. C. Staff               (C) Copyright 2022 MPC           M.P.E.C. 2022-E198
    


    Read MPEC 2022-E197 Read MPEC 2022-E199


    MPEC number:

    Enter an MPEC number in one of the following forms:

    • 1997-B01 (the full form)
    • J97B01 (the packed version of the full form)
    • B01 (the abbreviated form)